Weather Roundup
Issued by NWS Chicago, IL

Home | Current Version | Previous Version | Graphics & Text | Print | Product List | Glossary On
Versions: 1 2 3 4 5 6 7 8 9 10 11 12 13 14 15 16 17 18 19 20 21 22 23 24 25 26 27 28 29 30 31 32 33 34 35 36 37 38 39 40 41 42 43 44 45 46 47 48 49 50
000
NZUS59 KLOT 181203
HRRLOT

CHICAGO AREA WEATHER ROUNDUP
NATIONAL WEATHER SERVICE CHICAGO/ROMEOVILLE IL
600 AM CST MON DEC 18 2017

NOTE: "FAIR" INDICATES FEW OR NO CLOUDS BELOW 12,000 FEET WITH NO
SIGNIFICANT WEATHER AND/OR OBSTRUCTIONS TO VISIBILITY.

* THESE STATIONS ARE NOT UNDER NWS QUALITY CONTROL. THEY ALSO MAY NOT
  REPORT WEATHER SUCH AS PRECIPITATION OR FOG.

ILZ005-006-012>014-019>023-181300-
NORTHEAST ILLINOIS

CITY           SKY/WX    TMP DP  RH WIND       PRES   REMARKS
OHARE          CLOUDY    43  40  89 W10G20    29.92R
6HR MIN TEMP:  40; 6HR MAX TEMP:  43; 6HR PCP: TRACE;

MIDWAY         DRIZZLE   44  42  93 W13       29.94R
6HR MIN TEMP:  43; 6HR MAX TEMP:  44; 6HR PCP: TRACE;

AURORA         CLOUDY    41  41 100 SW8       29.94R FOG
6HR MIN TEMP:  41; 6HR MAX TEMP:  42; 6HR PCP: TRACE;

LANSING*       CLOUDY    42  42 100 SW8       29.95S FOG
JOLIET*        CLOUDY    45  43  95 SW9       29.95S
WAUKEGAN       CLOUDY    40  39  97 W6        29.90S FOG
6HR MIN TEMP:  35; 6HR MAX TEMP:  40; 6HR PCP: TRACE;

DUPAGE AIRPORT CLOUDY    41  41 100 SW8       29.92S FOG
6HR MIN TEMP:  38; 6HR MAX TEMP:  41; 6HR PCP: TRACE;

WHEELING       CLOUDY    43  41  93 SW9       29.93S
6HR MIN TEMP:  40; 6HR MAX TEMP:  43;

NORTHERLY ISL    N/A     44  40  85 SW3         N/A
$$

WIZ051-052-058>065-066-070>072-181300-
SOUTHEAST WISCONSIN

CITY           SKY/WX    TMP DP  RH WIND       PRES   REMARKS
MILWAUKEE      CLOUDY    36  35  96 SW3       29.90R FOG
6HR MIN TEMP:  34; 6HR MAX TEMP:  36; 6HR PCP:  0.05;

KENOSHA*       CLOUDY    39  37  92 W10       29.90S FOG
RACINE*        FOG       36  36 100 SW5       29.92R VSB 1
WAUKESHA       CLOUDY    32  32 100 CALM      29.90S FOG
$$

INZ001>003-010>013-019-020-181300-
NORTHWEST INDIANA

CITY           SKY/WX    TMP DP  RH WIND       PRES   REMARKS
GARY*          CLOUDY    43  41  93 SW6       29.95S FOG
MICHIGAN CITY* NOT AVBL
RENSSELAER*    NOT AVBL
VALPARAISO     CLOUDY    43  42  97 SW10      29.96R FOG
$$

LMZ740>746-181300-
SOUTHERN LAKE MICHIGAN

STATION/POSITION TIME  SKY/WX   TEMP WIND        PRES    VSBY
                                AIR  DIR/SP/G
                 (UTC)          (F)  (DEG/KT/KT) (MB)    (MI)
HARRISON CRIB    1140            44  240/ 11/ 13   N/A
BURNHAM HARBOR   1200            44  200/  8/ 10   N/A
CALUMET HARBOR   1130            42  200/  6/  9 1013.0S
BURNS HARBOR     1140            43  220/ 12/ 15 1014.6R
MICHIGAN CITY    1140            42  190/ 14/ 16   N/A
$$

ABBREVIATIONS USED IN REMARKS
   TC - TEMPERATURE IN CELSIUS
  WCI - WIND CHILL INDEX
   HX - HEAT INDEX
  VSB - VISIBILITY
$$




USA.gov is the U.S. government's official web portal to all federal, state and local government web resources and services.